When you browse on this site, cookies collect data to enhance your experience and personalize the content and advertising you see.
Visit our Privacy Policy to learn more. By continuing to use the site, you agree to this use of cookies and data.

Hourly Weather Darwin

Today, 4 August, Tuesday

Time Temperature Precipitation Wind Pressure Humidity
00:00 +21°C° 0 mm 1 mps 759 mmHg 88%
01:00 +20°C° 0 mm 2 mps 758 mmHg 89%
02:00 +20°C° 0 mm 2 mps 758 mmHg 90%
03:00 +19°C° 0 mm 2 mps 758 mmHg 92%
04:00 +20°C° 0 mm 2 mps 758 mmHg 92%
05:00 +20°C° 0 mm 2 mps 758 mmHg 92%
06:00 +20°C° 0 mm 2 mps 759 mmHg 91%
07:00 +23°C° 0 mm 2 mps 759 mmHg 83%
08:00 +25°C° 0 mm 3 mps 759 mmHg 75%
09:00 +28°C° 0 mm 3 mps 759 mmHg 65%
10:00 +30°C° 0 mm 3 mps 759 mmHg 57%
11:00 +33°C° 0 mm 3 mps 759 mmHg 50%
12:00 +34°C° 0 mm 2 mps 758 mmHg 42%
13:00 +33°C° 0 mm 3 mps 758 mmHg 46%
14:00 +33°C° 0 mm 4 mps 757 mmHg 50%
15:00 +32°C° 0 mm 4 mps 756 mmHg 54%
16:00 +30°C° 0 mm 3 mps 756 mmHg 57%
17:00 +29°C° 0 mm 3 mps 756 mmHg 60%
18:00 +28°C° 0 mm 2 mps 756 mmHg 63%
19:00 +26°C° 0 mm 2 mps 756 mmHg 69%
20:00 +25°C° 0 mm 2 mps 757 mmHg 74%
21:00 +24°C° 0 mm 2 mps 757 mmHg 80%
22:00 +23°C° 0 mm 2 mps 758 mmHg 84%
23:00 +23°C° 0 mm 2 mps 758 mmHg 87%

Tomorrow, 5 August, Wednesday

Time Temperature Precipitation Wind Pressure Humidity
00:00 +23°C° 0 mm 2 mps 758 mmHg 91%
01:00 +22°C° 0 mm 1 mps 758 mmHg 92%
02:00 +22°C° 0 mm 1 mps 758 mmHg 93%
03:00 +22°C° 0 mm 1 mps 758 mmHg 93%
04:00 +21°C° 0 mm 2 mps 758 mmHg 93%
05:00 +21°C° 0 mm 2 mps 758 mmHg 93%
06:00 +21°C° 0 mm 3 mps 758 mmHg 93%
07:00 +24°C° 0 mm 2 mps 758 mmHg 81%
08:00 +27°C° 0 mm 2 mps 758 mmHg 70%
09:00 +29°C° 0 mm 2 mps 759 mmHg 59%
10:00 +31°C° 0 mm 2 mps 758 mmHg 53%
11:00 +34°C° 0 mm 2 mps 758 mmHg 46%
12:00 +36°C° 0 mm 2 mps 757 mmHg 39%
13:00 +35°C° 0 mm 3 mps 756 mmHg 41%
14:00 +35°C° 0 mm 3 mps 756 mmHg 42%
15:00 +34°C° 0 mm 3 mps 755 mmHg 43%
16:00 +31°C° 0 mm 3 mps 755 mmHg 48%
17:00 +30°C° 0 mm 3 mps 755 mmHg 53%
18:00 +28°C° 0 mm 3 mps 755 mmHg 58%
19:00 +27°C° 0 mm 4 mps 756 mmHg 68%
20:00 +25°C° 0 mm 4 mps 756 mmHg 78%
21:00 +23°C° 0 mm 4 mps 757 mmHg 88%
22:00 +23°C° 0 mm 4 mps 757 mmHg 90%
23:00 +24°C° 0 mm 3 mps 757 mmHg 92%

Day after tomorrow, 6 August, Thursday

Time Temperature Precipitation Wind Pressure Humidity
00:00 +24°C° 0 mm 3 mps 757 mmHg 94%
01:00 +24°C° 0 mm 2 mps 757 mmHg 93%
02:00 +24°C° 0 mm 2 mps 757 mmHg 93%
03:00 +24°C° 0 mm 2 mps 757 mmHg 92%
04:00 +24°C° 0.1 mm 2 mps 757 mmHg 91%
05:00 +24°C° 0.1 mm 2 mps 757 mmHg 90%
06:00 +25°C° 0.1 mm 1 mps 758 mmHg 89%
07:00 +26°C° 0.2 mm 1 mps 758 mmHg 84%
08:00 +27°C° 0.2 mm 1 mps 759 mmHg 79%
09:00 +28°C° 0.2 mm 1 mps 759 mmHg 74%
10:00 +29°C° 0.2 mm 2 mps 759 mmHg 68%
11:00 +30°C° 0.2 mm 3 mps 758 mmHg 62%
12:00 +33°C° 0.2 mm 3 mps 758 mmHg 56%
13:00 +33°C° 0.1 mm 4 mps 757 mmHg 54%
14:00 +33°C° 0.1 mm 4 mps 757 mmHg 53%
15:00 +33°C° 0.1 mm 5 mps 756 mmHg 52%
16:00 +32°C° 0 mm 5 mps 756 mmHg 57%
17:00 +29°C° 0 mm 5 mps 756 mmHg 62%
18:00 +28°C° 0 mm 5 mps 756 mmHg 66%
19:00 +27°C° 0 mm 5 mps 757 mmHg 73%
20:00 +25°C° 0 mm 4 mps 757 mmHg 79%
21:00 +23°C° 0 mm 4 mps 758 mmHg 86%
22:00 +22°C° 0 mm 4 mps 758 mmHg 86%
23:00 +22°C° 0 mm 3 mps 758 mmHg 86%

7 August, Friday

Time Temperature Precipitation Wind Pressure Humidity
00:00 +22°C° 0 mm 3 mps 758 mmHg 87%
01:00 +21°C° 0 mm 3 mps 758 mmHg 87%
02:00 +21°C° 0 mm 3 mps 758 mmHg 88%
03:00 +21°C° 0 mm 3 mps 757 mmHg 88%
04:00 +20°C° 0 mm 3 mps 758 mmHg 90%
05:00 +19°C° 0 mm 3 mps 758 mmHg 92%
06:00 +19°C° 0 mm 3 mps 758 mmHg 94%
07:00 +21°C° 0 mm 3 mps 758 mmHg 79%
08:00 +25°C° 0 mm 4 mps 759 mmHg 64%
09:00 +28°C° 0 mm 4 mps 759 mmHg 49%
10:00 +30°C° 0 mm 4 mps 759 mmHg 39%
11:00 +33°C° 0 mm 3 mps 758 mmHg 30%
12:00 +35°C° 0 mm 2 mps 758 mmHg 20%
13:00 +35°C° 0 mm 3 mps 757 mmHg 21%
14:00 +36°C° 0 mm 3 mps 757 mmHg 22%
15:00 +36°C° 0 mm 4 mps 756 mmHg 23%
16:00 +34°C° 0 mm 4 mps 756 mmHg 37%
17:00 +30°C° 0 mm 4 mps 756 mmHg 51%
18:00 +27°C° 0 mm 4 mps 756 mmHg 65%
19:00 +26°C° 0 mm 4 mps 757 mmHg 73%
20:00 +24°C° 0 mm 3 mps 758 mmHg 81%
21:00 +22°C° 0 mm 3 mps 758 mmHg 90%
22:00 +21°C° 0 mm 3 mps 758 mmHg 91%
23:00 +21°C° 0 mm 3 mps 758 mmHg 92%

8 August, Saturday

Time Temperature Precipitation Wind Pressure Humidity
00:00 +21°C° 0 mm 4 mps 758 mmHg 93%
01:00 +20°C° 0 mm 3 mps 758 mmHg 90%
02:00 +19°C° 0 mm 3 mps 758 mmHg 87%
03:00 +19°C° 0 mm 3 mps 758 mmHg 84%
04:00 +18°C° 0 mm 3 mps 758 mmHg 74%
05:00 +18°C° 0 mm 3 mps 758 mmHg 63%
06:00 +17°C° 0 mm 3 mps 758 mmHg 53%
07:00 +20°C° 0 mm 3 mps 759 mmHg 44%
08:00 +23°C° 0 mm 4 mps 759 mmHg 34%
09:00 +26°C° 0 mm 4 mps 760 mmHg 25%
10:00 +29°C° 0 mm 3 mps 759 mmHg 23%
11:00 +33°C° 0 mm 3 mps 759 mmHg 21%
12:00 +36°C° 0 mm 2 mps 758 mmHg 19%
13:00 +36°C° 0 mm 2 mps 758 mmHg 19%
14:00 +36°C° 0 mm 3 mps 757 mmHg 20%
15:00 +36°C° 0 mm 3 mps 756 mmHg 20%
16:00 +34°C° 0 mm 3 mps 756 mmHg 24%
17:00 +31°C° 0 mm 3 mps 757 mmHg 29%
18:00 +28°C° 0 mm 3 mps 757 mmHg 33%
19:00 +27°C° 0 mm 2 mps 757 mmHg 40%
20:00 +25°C° 0 mm 2 mps 758 mmHg 47%
21:00 +23°C° 0 mm 2 mps 759 mmHg 54%
22:00 +23°C° 0 mm 2 mps 759 mmHg 56%
23:00 +21°C° 0 mm 2 mps 759 mmHg 58%

9 August, Sunday

Time Temperature Precipitation Wind Pressure Humidity
00:00 +22°C° 0 mm 1 mps 759 mmHg 59%
01:00 +21°C° 0 mm 1 mps 759 mmHg 63%
02:00 +20°C° 0 mm 2 mps 759 mmHg 66%
03:00 +20°C° 0 mm 2 mps 759 mmHg 70%
04:00 +20°C° 0 mm 2 mps 759 mmHg 74%
05:00 +20°C° 0 mm 2 mps 759 mmHg 78%
06:00 +20°C° 0 mm 3 mps 759 mmHg 82%
07:00 +24°C° 0 mm 3 mps 760 mmHg 74%
08:00 +26°C° 0 mm 3 mps 760 mmHg 66%
09:00 +29°C° 0 mm 3 mps 760 mmHg 58%
10:00 +31°C° 0 mm 3 mps 760 mmHg 51%
11:00 +35°C° 0 mm 3 mps 760 mmHg 43%
12:00 +37°C° 0 mm 3 mps 759 mmHg 36%
13:00 +36°C° 0 mm 3 mps 758 mmHg 39%
14:00 +35°C° 0 mm 4 mps 758 mmHg 42%
15:00 +35°C° 0 mm 4 mps 757 mmHg 46%
16:00 +34°C° 0 mm 3 mps 757 mmHg 49%
17:00 +31°C° 0 mm 3 mps 757 mmHg 53%
18:00 +30°C° 0 mm 2 mps 757 mmHg 57%
19:00 +29°C° 0 mm 3 mps 758 mmHg 63%
20:00 +27°C° 0 mm 3 mps 758 mmHg 69%
21:00 +26°C° 0 mm 3 mps 759 mmHg 75%
22:00 +25°C° 0 mm 3 mps 759 mmHg 80%
23:00 +24°C° 0 mm 2 mps 759 mmHg 85%
Show more